Flag for U.S.A. Weather past 2 weeks in Hollywood, California, U.S.A.

Now
83 °F

Sunny.


Feels Like: 80 °F
Forecast: 58 / 83 °F
Wind: 10 mph from Southeast

Location: Burbank-Glendale-Pasadena Airport

Current Time: Apr 27, 2015 at 2:03:59 PM

Latest Report: Apr 27, 2015 at 12:53 PM


Visibility: 10 mi

Pressure: 29.88 "Hg

Humidity: 17%

Dew point: 33 °F

Location of HollywoodLocation

Historic Weather in Hollywood — Graph

°F

Hollywood temperature yesterday

Maximum temperature yesterday: 79 °F (at 4:00 PM)
Minimum temperature yesterday: 55 °F (at 12:53 AM)
Average temperature yesterday: 68 °F

Past Weeks' High & Low Weather Summary

 TemperatureHumidityPressure
High85 °F (Apr 27, 11:53 AM)88% (Apr 14, 3:55 AM)30.08 "Hg (Apr 14, 3:55 AM)
Low53 °F (Apr 23, 4:53 AM)7% (Apr 16, 10:53 AM)29.78 "Hg (Apr 20, 5:53 PM)
Average64 °F51%29.92 "Hg
* Reported Apr 12 12:53 PM — Apr 27 12:53 PM, Hollywood, Weather by CustomWeather, © 2015

Note: Actual official high and low records may vary slightly from our data, if they occured in-between our weather recording intervals... More about our weather records

Advertising

Hollywood weather history for previous 24 hours

 ConditionsComfort  
Time TempWeatherWind HumidityBarometerVisibility
12:53 PM
Mon, Apr 27
83 °FSunny.10 mph17%29.88 "Hg10 mi
11:53 AM85 °FSunny.16 mph9%29.89 "Hg10 mi
10:53 AM81 °FSunny.5 mph14%29.90 "Hg10 mi
9:53 AM77 °FSunny.6 mph22%29.92 "Hg10 mi
8:53 AM78 °FSunny.18 mph13%29.91 "Hg10 mi
7:53 AM66 °FSunny.7 mph42%29.91 "Hg10 mi
6:53 AM59 °FClear.No wind56%29.90 "Hg10 mi
5:53 AM57 °FClear.No wind62%29.88 "Hg10 mi
4:53 AM56 °FClear.No wind65%29.88 "Hg10 mi
3:53 AM57 °FClear.3 mph60%29.88 "Hg10 mi
2:53 AM58 °FClear.6 mph58%29.87 "Hg10 mi
1:53 AM59 °FClear.No wind58%29.89 "Hg10 mi
12:53 AM60 °FClear.No wind62%29.90 "Hg10 mi
11:53 PM
Sun, Apr 26
63 °FClear.5 mph56%29.90 "Hg10 mi
10:53 PM64 °FClear.8 mph54%29.89 "Hg10 mi
9:53 PM67 °FClear.No wind47%29.88 "Hg10 mi
8:53 PM69 °FClear.No wind44%29.87 "Hg10 mi
7:53 PM73 °FSunny.8 mph24%29.85 "Hg10 mi
6:53 PM74 °FSunny.14 mph24%29.84 "Hg10 mi
5:53 PM77 °FSunny.18 mph21%29.84 "Hg10 mi
4:53 PM78 °FSunny.14 mph19%29.85 "Hg10 mi
4:00 PM79 °FSunny.9 mph17%29.90 "Hg10 mi
2:53 PM77 °FSunny.9 mph24%29.88 "Hg10 mi
Weather by CustomWeather, © 2015

See weather overviewHow to use our weather pages